Fort Rucker / Ozark, AL

10:31 AM CDT on June 28, 2017 (GMT -0500)
Fort Rucker / Ozark

Weather History for KLOR - July, 2013

Change the Weather History Date:

Tuesday, July 30, 2013

  Actual Average (KOZR) Record (KOZR)
Temperature  
Mean Temperature 83 °F -  
Max Temperature 93 °F 87 °F 99 °F (2010)
Min Temperature 73 °F 69 °F 64 °F (1996)
Cooling Degree Days 18    
Growing Degree Days 33 (Base 50)    
Moisture  
Dew Point 74 °F    
Average Humidity 82    
Maximum Humidity 100    
Minimum Humidity 52    
Precipitation  
Precipitation 0.00 in - - ()
Sea Level Pressure  
Sea Level Pressure 30.12 in    
Wind  
Wind Speed 1 mph (SSW)    
Max Wind Speed 9 mph    
Max Gust Speed -    
Visibility 8 miles    
Events Fog , Thunderstorm    
Averages and records for this station are not official NWS values.
T = Trace of Precipitation, MM = Missing Value Source: NWS Daily Summary

Daily Weather History Graph

Daily Weather History Graph

Search for Another Location

Airport or City:

Trip Planner

Search our weather history database for the weather conditions in past years. The results will help you decide how hot, cold, wet, or windy it might be!

Date:

Astronomy

Jul. 30, 2013 Rise Set
Actual Time 5:58 AM CDT 7:40 PM CDT
Civil Twilight 5:31 AM CDT 8:06 PM CDT
Nautical Twilight 5:00 AM CDT 8:38 PM CDT
Astronomical Twilight 4:26 AM CDT 9:11 PM CDT
Moon 12:12 AM CDT (7/30) 2:00 PM CDT (7/30)
Length of Visible Light 14h 34m
Length of Day
13h 41m
Last Quarter, 41% of the Moon is Illuminated
Jul 30
Last Quarter
Aug 6
New
Aug 14
First Quarter
Aug 20
Full
Aug 28
Last Quarter

Hourly Weather History & Observations

Time (CDT) Temp. Heat Index Dew Point Humidity Pressure Visibility Wind Dir Wind Speed Gust Speed Precip Events Conditions
12:53 AM 75.0 °F - 73.9 °F 96% 30.12 in 7.0 mi Calm Calm - N/A   Clear
1:53 AM 73.9 °F - 73.0 °F 97% 30.12 in 7.0 mi Calm Calm - N/A   Clear
2:53 AM 73.9 °F - 73.0 °F 97% 30.11 in 6.0 mi Calm Calm - N/A   Clear
3:53 AM 73.0 °F - 72.0 °F 96% 30.11 in 7.0 mi Calm Calm - N/A   Clear
4:53 AM 73.0 °F - 72.0 °F 96% 30.12 in 6.0 mi Calm Calm - N/A   Clear
5:01 AM 73.4 °F - 71.6 °F 94% 30.13 in 7.0 mi Calm Calm - N/A   Scattered Clouds
5:10 AM 73.4 °F - 71.6 °F 94% 30.13 in 7.0 mi Calm Calm - N/A   Mostly Cloudy
5:30 AM 73.4 °F - 71.6 °F 94% 30.14 in 1.8 mi Calm Calm - N/A   Overcast
5:41 AM 73.4 °F - 71.6 °F 94% 30.14 in 0.5 mi Calm Calm - N/A Fog Fog
5:53 AM 73.0 °F - 72.0 °F 96% 30.13 in 0.2 mi Calm Calm - N/A Fog Fog
6:53 AM 73.9 °F - 73.9 °F 100% 30.15 in 0.2 mi Calm Calm - N/A Fog Fog
7:53 AM 77.0 °F - 75.9 °F 96% 30.17 in 0.5 mi Calm Calm - N/A Fog Fog
8:02 AM 77.0 °F - 75.2 °F 94% 30.18 in 2.0 mi Calm Calm - N/A   Overcast
8:12 AM 77.0 °F - 75.2 °F 94% 30.17 in 7.0 mi Calm Calm - N/A   Mostly Cloudy
8:23 AM 78.8 °F - 75.2 °F 89% 30.18 in 10.0 mi Calm Calm - N/A   Scattered Clouds
8:53 AM 82.0 °F 89.4 °F 75.9 °F 82% 30.16 in 10.0 mi Calm Calm - N/A   Clear
9:53 AM 86.0 °F 90.7 °F 70.0 °F 59% 30.15 in 10.0 mi Calm Calm - N/A   Partly Cloudy
10:53 AM 87.1 °F 93.6 °F 72.0 °F 61% 30.16 in 10.0 mi WSW 3.5 mph - N/A   Partly Cloudy
11:53 AM 89.1 °F 98.0 °F 73.9 °F 61% 30.15 in 10.0 mi SW 5.8 mph - N/A   Partly Cloudy
12:53 PM 89.1 °F 97.0 °F 73.0 °F 59% 30.13 in 10.0 mi South 3.5 mph - N/A   Partly Cloudy
1:53 PM 91.0 °F 100.4 °F 73.9 °F 57% 30.11 in 10.0 mi Variable 5.8 mph - N/A   Scattered Clouds
2:53 PM 91.9 °F 100.7 °F 73.0 °F 54% 30.09 in 10.0 mi West 5.8 mph - N/A   Overcast
3:53 PM 93.0 °F 101.9 °F 73.0 °F 52% 30.06 in 10.0 mi Calm Calm - N/A   Overcast
4:53 PM 87.1 °F 96.3 °F 75.0 °F 67% 30.06 in 10.0 mi SSW 9.2 mph - N/A   Mostly Cloudy
5:53 PM 88.0 °F 96.5 °F 73.9 °F 63% 30.08 in 10.0 mi South 9.2 mph - 0.00 in   Scattered Clouds
6:53 PM 82.9 °F 90.8 °F 75.9 °F 79% 30.08 in 10.0 mi South 6.9 mph - N/A   Clear
7:00 PM 82.4 °F 89.5 °F 75.2 °F 79% 30.08 in 10.0 mi South 8.1 mph - N/A Thunderstorm Thunderstorm
7:27 PM 82.4 °F 89.5 °F 75.2 °F 79% 30.09 in 10.0 mi South 3.5 mph - N/A   Partly Cloudy
7:53 PM 81.0 °F 86.7 °F 75.0 °F 82% 30.09 in 10.0 mi South 5.8 mph - N/A   Clear
8:53 PM 79.0 °F - 73.9 °F 84% 30.11 in 10.0 mi South 4.6 mph - N/A Thunderstorm Thunderstorm
9:26 PM 78.8 °F - 75.2 °F 89% 30.12 in 10.0 mi Calm Calm - N/A   Clear
9:53 PM 78.1 °F - 73.9 °F 87% 30.12 in 10.0 mi Calm Calm - N/A   Clear
10:53 PM 77.0 °F - 73.9 °F 90% 30.12 in 10.0 mi Calm Calm - N/A   Clear
11:53 PM 77.0 °F - 73.9 °F 90% 30.11 in 10.0 mi South 3.5 mph - N/A   Scattered Clouds